When you browse on this site, cookies collect data to enhance your experience and personalize the content and advertising you see.
Visit our Privacy Policy to learn more. By continuing to use the site, you agree to this use of cookies and data.
  • In Germany
  • List of Countries
  • For 7 days
  • Water Temperature
  • Satellite Maps
  • Weather Map
  • Weather Widgets
  • user-avatar
    Login

    Hourly Weather Etchmiadzin

    Today, 20 January, Sunday

    Time Temperature Precipitation Wind Pressure Humidity
    00:00 -3°C° 0 mm 2 mps 689 mmHg 39%
    01:00 -3°C° 0 mm 2 mps 689 mmHg 39%
    02:00 -3°C° 0 mm 2 mps 689 mmHg 38%
    03:00 -1°C° 0 mm 1 mps 689 mmHg 38%
    04:00 -1°C° 0 mm 1 mps 689 mmHg 38%
    05:00 -1°C° 0 mm 1 mps 689 mmHg 37%
    06:00 -3°C° 0 mm 2 mps 689 mmHg 37%
    07:00 0°C° 0 mm 1 mps 689 mmHg 36%
    08:00 +1°C° 0 mm 1 mps 690 mmHg 36%
    09:00 +2°C° 0 mm 1 mps 690 mmHg 36%
    10:00 +3°C° 0 mm 1 mps 690 mmHg 34%
    11:00 +3°C° 0 mm 1 mps 689 mmHg 33%
    12:00 +4°C° 0 mm 1 mps 689 mmHg 31%
    13:00 +5°C° 0 mm 1 mps 689 mmHg 31%
    14:00 +5°C° 0 mm 1 mps 689 mmHg 31%
    15:00 +5°C° 0 mm 1 mps 689 mmHg 31%
    16:00 +4°C° 0 mm 1 mps 689 mmHg 32%
    17:00 +3°C° 0 mm 1 mps 689 mmHg 34%
    18:00 +1°C° 0 mm 1 mps 690 mmHg 35%
    19:00 +1°C° 0 mm 1 mps 690 mmHg 36%
    20:00 0°C° 0 mm 1 mps 690 mmHg 36%
    21:00 -2°C° 0 mm 2 mps 690 mmHg 37%
    22:00 -2°C° 0 mm 2 mps 690 mmHg 37%
    23:00 -1°C° 0 mm 1 mps 690 mmHg 37%

    Tomorrow, 21 January, Monday

    Time Temperature Precipitation Wind Pressure Humidity
    00:00 -1°C° 0 mm 1 mps 691 mmHg 38%
    01:00 -1°C° 0 mm 1 mps 691 mmHg 38%
    02:00 -1°C° 0 mm 1 mps 691 mmHg 39%
    03:00 -1°C° 0 mm 1 mps 691 mmHg 39%
    04:00 -2°C° 0 mm 1 mps 691 mmHg 40%
    05:00 -2°C° 0 mm 1 mps 690 mmHg 40%
    06:00 -4°C° 0 mm 2 mps 690 mmHg 41%
    07:00 -1°C° 0 mm 1 mps 690 mmHg 40%
    08:00 0°C° 0 mm 1 mps 691 mmHg 38%
    09:00 0°C° 0 mm 1 mps 691 mmHg 37%
    10:00 +2°C° 0 mm 1 mps 690 mmHg 36%
    11:00 +2°C° 0 mm 2 mps 690 mmHg 34%
    12:00 +3°C° 0 mm 2 mps 689 mmHg 32%
    13:00 +3°C° 0 mm 2 mps 689 mmHg 32%
    14:00 +3°C° 0 mm 2 mps 688 mmHg 32%
    15:00 +3°C° 0 mm 2 mps 688 mmHg 32%
    16:00 +2°C° 0 mm 2 mps 688 mmHg 33%
    17:00 +1°C° 0 mm 2 mps 688 mmHg 34%
    18:00 -1°C° 0 mm 2 mps 688 mmHg 36%
    19:00 -2°C° 0 mm 2 mps 688 mmHg 37%
    20:00 -2°C° 0 mm 2 mps 688 mmHg 38%
    21:00 -2°C° 0 mm 2 mps 688 mmHg 39%
    22:00 -3°C° 0 mm 2 mps 688 mmHg 40%
    23:00 -3°C° 0 mm 2 mps 688 mmHg 41%

    Day after tomorrow, 22 January, Tuesday

    Time Temperature Precipitation Wind Pressure Humidity
    00:00 -1°C° 0 mm 1 mps 688 mmHg 41%
    01:00 -1°C° 0 mm 1 mps 688 mmHg 42%
    02:00 -1°C° 0 mm 1 mps 688 mmHg 42%
    03:00 -2°C° 0 mm 1 mps 688 mmHg 42%
    04:00 -4°C° 0 mm 2 mps 687 mmHg 42%
    05:00 -4°C° 0 mm 2 mps 687 mmHg 42%
    06:00 -4°C° 0 mm 2 mps 687 mmHg 42%
    07:00 -1°C° 0 mm 1 mps 687 mmHg 41%
    08:00 0°C° 0 mm 1 mps 687 mmHg 40%
    09:00 +1°C° 0 mm 1 mps 687 mmHg 38%
    10:00 +2°C° 0 mm 1 mps 687 mmHg 37%
    11:00 +3°C° 0 mm 1 mps 686 mmHg 36%
    12:00 +4°C° 0 mm 1 mps 686 mmHg 35%
    13:00 +4°C° 0 mm 1 mps 686 mmHg 35%
    14:00 +5°C° 0 mm 1 mps 685 mmHg 35%
    15:00 +5°C° 0 mm 1 mps 685 mmHg 36%
    16:00 +4°C° 0 mm 1 mps 685 mmHg 38%
    17:00 +3°C° 0 mm 1 mps 686 mmHg 40%
    18:00 +2°C° 0 mm 1 mps 686 mmHg 42%
    19:00 +2°C° 0 mm 1 mps 686 mmHg 44%
    20:00 +1°C° 0 mm 1 mps 687 mmHg 45%
    21:00 +1°C° 0 mm 1 mps 687 mmHg 46%
    22:00 0°C° 0 mm 1 mps 687 mmHg 47%
    23:00 0°C° 0 mm 1 mps 687 mmHg 48%

    23 January, Wednesday

    Time Temperature Precipitation Wind Pressure Humidity
    00:00 0°C° 0 mm 1 mps 687 mmHg 49%
    01:00 -1°C° 0 mm 1 mps 687 mmHg 50%
    02:00 -1°C° 0 mm 1 mps 687 mmHg 51%
    03:00 -1°C° 0 mm 1 mps 687 mmHg 52%
    04:00 -1°C° 0 mm 1 mps 687 mmHg 53%
    05:00 -1°C° 0 mm 1 mps 687 mmHg 54%
    06:00 -1°C° 0 mm 1 mps 687 mmHg 55%
    07:00 -1°C° 0 mm 1 mps 688 mmHg 52%
    08:00 0°C° 0 mm 1 mps 688 mmHg 50%
    09:00 +1°C° 0 mm 1 mps 689 mmHg 48%
    10:00 +2°C° 0 mm 1 mps 688 mmHg 47%
    11:00 +2°C° 0 mm 2 mps 688 mmHg 45%
    12:00 +3°C° 0 mm 2 mps 688 mmHg 43%
    13:00 +3°C° 0 mm 2 mps 688 mmHg 43%
    14:00 +4°C° 0 mm 2 mps 688 mmHg 42%
    15:00 +4°C° 0 mm 2 mps 687 mmHg 42%
    16:00 +3°C° 0 mm 2 mps 688 mmHg 44%
    17:00 +2°C° 0 mm 2 mps 688 mmHg 46%
    18:00 +1°C° 0 mm 2 mps 689 mmHg 48%
    19:00 -1°C° 0 mm 2 mps 689 mmHg 49%
    20:00 -1°C° 0 mm 2 mps 689 mmHg 49%
    21:00 -2°C° 0 mm 2 mps 690 mmHg 50%
    22:00 -2°C° 0 mm 2 mps 690 mmHg 51%
    23:00 -2°C° 0 mm 2 mps 690 mmHg 52%

    24 January, Thursday

    Time Temperature Precipitation Wind Pressure Humidity
    00:00 0°C° 0 mm 1 mps 690 mmHg 53%
    01:00 0°C° 0 mm 1 mps 690 mmHg 54%
    02:00 -1°C° 0 mm 1 mps 690 mmHg 54%
    03:00 -1°C° 0 mm 1 mps 690 mmHg 55%
    04:00 -1°C° 0 mm 1 mps 690 mmHg 55%
    05:00 -1°C° 0 mm 1 mps 690 mmHg 54%
    06:00 -1°C° 0 mm 1 mps 690 mmHg 54%
    07:00 0°C° 0 mm 1 mps 690 mmHg 52%
    08:00 +1°C° 0 mm 1 mps 690 mmHg 49%
    09:00 +2°C° 0 mm 1 mps 691 mmHg 46%
    10:00 +2°C° 0 mm 2 mps 690 mmHg 44%
    11:00 +3°C° 0 mm 2 mps 690 mmHg 43%
    12:00 +4°C° 0 mm 2 mps 689 mmHg 41%
    13:00 +4°C° 0 mm 2 mps 689 mmHg 41%
    14:00 +5°C° 0 mm 2 mps 689 mmHg 40%
    15:00 +4°C° 0 mm 3 mps 688 mmHg 40%
    16:00 +3°C° 0 mm 3 mps 689 mmHg 42%
    17:00 +2°C° 0 mm 3 mps 689 mmHg 45%
    18:00 +1°C° 0 mm 3 mps 689 mmHg 47%
    19:00 +2°C° 0 mm 2 mps 689 mmHg 49%
    20:00 +1°C° 0 mm 2 mps 689 mmHg 51%
    21:00 +1°C° 0 mm 2 mps 690 mmHg 52%
    22:00 +1°C° 0 mm 2 mps 690 mmHg 53%
    23:00 +1°C° 0 mm 2 mps 689 mmHg 54%

    25 January, Friday

    Time Temperature Precipitation Wind Pressure Humidity
    00:00 +1°C° 0 mm 2 mps 689 mmHg 54%
    01:00 -1°C° 0 mm 2 mps 689 mmHg 55%
    02:00 -1°C° 0 mm 2 mps 689 mmHg 56%
    03:00 -1°C° 0 mm 2 mps 689 mmHg 56%
    04:00 -1°C° 0.1 mm 2 mps 689 mmHg 58%
    05:00 +1°C° 0.1 mm 2 mps 688 mmHg 60%
    06:00 +1°C° 0.1 mm 2 mps 688 mmHg 62%
    07:00 +1°C° 0 mm 2 mps 688 mmHg 60%
    08:00 +2°C° 0 mm 2 mps 688 mmHg 59%
    09:00 +3°C° 0 mm 2 mps 688 mmHg 58%
    10:00 +3°C° 0 mm 3 mps 688 mmHg 54%
    11:00 +4°C° 0 mm 3 mps 688 mmHg 50%
    12:00 +5°C° 0 mm 3 mps 687 mmHg 47%
    13:00 +7°C° 0 mm 3 mps 687 mmHg 46%
    14:00 +7°C° 0 mm 3 mps 686 mmHg 44%
    15:00 +7°C° 0 mm 3 mps 686 mmHg 43%
    16:00 +5°C° 0 mm 3 mps 686 mmHg 45%
    17:00 +4°C° 0 mm 3 mps 686 mmHg 48%
    18:00 +3°C° 0 mm 3 mps 686 mmHg 50%
    19:00 +4°C° 0 mm 2 mps 686 mmHg 51%
    20:00 +4°C° 0 mm 2 mps 686 mmHg 52%
    21:00 +3°C° 0 mm 2 mps 686 mmHg 53%
    22:00 +3°C° 0 mm 2 mps 686 mmHg 54%
    23:00 +3°C° 0 mm 2 mps 685 mmHg 55%
    Show more